User: anonymous   Login
Location: Whitehorse
(60.7170°N, 135.0500°W)
Time: 11:55:20
(UTC-08:00)
Language:

Cosmos 2219 Rocket - Orbit

View from above orbital plane
View from above orbital plane
View from above satellite
View from above satellite

Ground track
Ground track

The orbit data is extracted from the following two-line orbital elements,

1 22220U 92076B   18055.94685975 +.00000200 +00000-0 +12440-3 0  9990
2 22220 070.9975 247.1957 0014977 250.5563 212.2855 14.16426296306236
Epoch (UTC): 24 February 2018 22:43:28
Eccentricity: 0.0014977
inclination: 70.9975°
perigee height: 826 km
apogee height: 848 km
right ascension of ascending node: 247.1957°
argument of perigee: 250.5563°
revolutions per day: 14.16426296
mean anomaly at epoch: 212.2855°
orbit number at epoch: 30623

The dashed part of the orbit path shows where the satellite is in the earth's shadow,  

DLR